owner,sensor,date,latitude,longitude,vertical_datum,mass_concentration_of_oxygen_in_sea_water,qcFlag 
NERRS,ioos:station:NOAA.NERRS:marscwq:1,2017-04-01T00:00:00Z,27.8383,-97.0503,6.18,6.9,1111122 
NERRS,ioos:station:NOAA.NERRS:marscwq:1,2017-04-01T01:00:00Z,27.8383,-97.0503,6.19,7.0,1111122 
NERRS,ioos:station:NOAA.NERRS:marscwq:1,2017-04-01T02:00:00Z,27.8383,-97.0503,6.05,6.8,1111122 
NERRS,ioos:station:NOAA.NERRS:marscwq:1,2017-04-01T03:00:00Z,27.8383,-97.0503,6.0,6.8,1111122 
NERRS,ioos:station:NOAA.NERRS:marscwq:1,2017-04-01T04:00:00Z,27.8383,-97.0503,5.95,6.7,1111122 
NERRS,ioos:station:NOAA.NERRS:marscwq:1,2017-04-01T05:00:00Z,27.8383,-97.0503,5.89,6.7,1111122 
NERRS,ioos:station:NOAA.NERRS:marscwq:1,2017-04-01T06:00:00Z,27.8383,-97.0503,5.89,6.6,1111122 
NERRS,ioos:station:NOAA.NERRS:marscwq:1,2017-04-01T07:00:00Z,27.8383,-97.0503,5.94,6.7,1111122 
NERRS,ioos:station:NOAA.NERRS:marscwq:1,2017-04-01T09:00:00Z,27.8383,-97.0503,6.13,6.7,1111122 
NERRS,ioos:station:NOAA.NERRS:marscwq:1,2017-04-01T10:00:00Z,27.8383,-97.0503,6.19,6.7,1111122 
NERRS,ioos:station:NOAA.NERRS:marscwq:1,2017-04-01T11:00:00Z,27.8383,-97.0503,6.24,6.6,1111122 
NERRS,ioos:station:NOAA.NERRS:marscwq:1,2017-04-01T12:00:00Z,27.8383,-97.0503,6.27,6.7,1111122 
NERRS,ioos:station:NOAA.NERRS:marscwq:1,2017-04-01T13:00:00Z,27.8383,-97.0503,6.35,6.8,1111122 
NERRS,ioos:station:NOAA.NERRS:marscwq:1,2017-04-01T14:00:00Z,27.8383,-97.0503,6.35,6.9,1111122 
NERRS,ioos:station:NOAA.NERRS:marscwq:1,2017-04-01T15:00:00Z,27.8383,-97.0503,6.34,6.9,1111122 
NERRS,ioos:station:NOAA.NERRS:marscwq:1,2017-04-01T16:00:00Z,27.8383,-97.0503,6.34,6.9,1111122 
NERRS,ioos:station:NOAA.NERRS:marscwq:1,2017-04-01T17:00:00Z,27.8383,-97.0503,6.34,7.0,1111122 
NERRS,ioos:station:NOAA.NERRS:marscwq:1,2017-04-01T18:00:00Z,27.8383,-97.0503,6.3,6.9,1111122 
NERRS,ioos:station:NOAA.NERRS:marscwq:1,2017-04-01T19:00:00Z,27.8383,-97.0503,6.33,6.9,1111122 
NERRS,ioos:station:NOAA.NERRS:marscwq:1,2017-04-01T20:00:00Z,27.8383,-97.0503,6.28,6.9,1111122 
NERRS,ioos:station:NOAA.NERRS:marscwq:1,2017-04-01T21:00:00Z,27.8383,-97.0503,6.27,6.9,1111122 
NERRS,ioos:station:NOAA.NERRS:marscwq:1,2017-04-01T22:00:00Z,27.8383,-97.0503,6.28,7.0,1111122 
NERRS,ioos:station:NOAA.NERRS:marscwq:1,2017-04-01T23:00:00Z,27.8383,-97.0503,6.27,7.0,1111122 
NERRS,ioos:station:NOAA.NERRS:marscwq:1,2017-04-02T00:00:00Z,27.8383,-97.0503,6.27,6.9,1111122 
NERRS,ioos:station:NOAA.NERRS:marscwq:1,2017-04-02T01:00:00Z,27.8383,-97.0503,6.25,7.0,1111122 
NERRS,ioos:station:NOAA.NERRS:marscwq:1,2017-04-02T02:00:00Z,27.8383,-97.0503,6.19,6.8,1111122 
NERRS,ioos:station:NOAA.NERRS:marscwq:1,2017-04-02T03:00:00Z,27.8383,-97.0503,6.17,6.8,1111122 
NERRS,ioos:station:NOAA.NERRS:marscwq:1,2017-04-02T04:00:00Z,27.8383,-97.0503,6.06,6.8,1111122 
NERRS,ioos:station:NOAA.NERRS:marscwq:1,2017-04-02T05:00:00Z,27.8383,-97.0503,6.05,6.8,1111122 
NERRS,ioos:station:NOAA.NERRS:marscwq:1,2017-04-02T06:00:00Z,27.8383,-97.0503,6.0,6.7,1111122 
NERRS,ioos:station:NOAA.NERRS:marscwq:1,2017-04-02T07:00:00Z,27.8383,-97.0503,5.96,6.7,1111122 
NERRS,ioos:station:NOAA.NERRS:marscwq:1,2017-04-02T08:00:00Z,27.8383,-97.0503,5.98,6.6,1111122 
NERRS,ioos:station:NOAA.NERRS:marscwq:1,2017-04-02T09:00:00Z,27.8383,-97.0503,6.08,6.7,1111122 
NERRS,ioos:station:NOAA.NERRS:marscwq:1,2017-04-02T10:00:00Z,27.8383,-97.0503,6.12,6.5,1111122 
NERRS,ioos:station:NOAA.NERRS:marscwq:1,2017-04-02T11:00:00Z,27.8383,-97.0503,6.21,6.4,1111122 
NERRS,ioos:station:NOAA.NERRS:marscwq:1,2017-04-02T12:00:00Z,27.8383,-97.0503,6.31,6.5,1111122 
NERRS,ioos:station:NOAA.NERRS:marscwq:1,2017-04-02T13:00:00Z,27.8383,-97.0503,6.35,6.5,1111122 
NERRS,ioos:station:NOAA.NERRS:marscwq:1,2017-04-02T14:00:00Z,27.8383,-97.0503,6.37,6.8,1111122 
NERRS,ioos:station:NOAA.NERRS:marscwq:1,2017-04-02T15:00:00Z,27.8383,-97.0503,6.38,6.9,1111122 
NERRS,ioos:station:NOAA.NERRS:marscwq:1,2017-04-02T16:00:00Z,27.8383,-97.0503,6.34,6.9,1111122 
NERRS,ioos:station:NOAA.NERRS:marscwq:1,2017-04-02T17:00:00Z,27.8383,-97.0503,6.39,6.9,1111122 
NERRS,ioos:station:NOAA.NERRS:marscwq:1,2017-04-02T18:00:00Z,27.8383,-97.0503,6.39,6.9,1111122 
NERRS,ioos:station:NOAA.NERRS:marscwq:1,2017-04-02T19:00:00Z,27.8383,-97.0503,6.38,6.8,1111122 
NERRS,ioos:station:NOAA.NERRS:marscwq:1,2017-04-02T20:00:00Z,27.8383,-97.0503,6.38,6.8,1111122 
NERRS,ioos:station:NOAA.NERRS:marscwq:1,2017-04-02T21:00:00Z,27.8383,-97.0503,6.36,6.8,1111122 
NERRS,ioos:station:NOAA.NERRS:marscwq:1,2017-04-02T22:00:00Z,27.8383,-97.0503,6.36,6.8,1111122 
NERRS,ioos:station:NOAA.NERRS:marscwq:1,2017-04-02T23:00:00Z,27.8383,-97.0503,6.33,6.8,1111122 
NERRS,ioos:station:NOAA.NERRS:marscwq:1,2017-04-03T00:00:00Z,27.8383,-97.0503,6.33,6.9,1111122 
NERRS,ioos:station:NOAA.NERRS:marscwq:1,2017-04-03T01:00:00Z,27.8383,-97.0503,6.32,6.9,1111122 
NERRS,ioos:station:NOAA.NERRS:marscwq:1,2017-04-03T02:00:00Z,27.8383,-97.0503,6.31,6.8,1111122 
NERRS,ioos:station:NOAA.NERRS:marscwq:1,2017-04-03T03:00:00Z,27.8383,-97.0503,6.21,6.8,1111122 
NERRS,ioos:station:NOAA.NERRS:marscwq:1,2017-04-03T04:00:00Z,27.8383,-97.0503,6.13,6.7,1111122 
NERRS,ioos:station:NOAA.NERRS:marscwq:1,2017-04-03T06:00:00Z,27.8383,-97.0503,6.02,6.8,1111122 
NERRS,ioos:station:NOAA.NERRS:marscwq:1,2017-04-03T07:00:00Z,27.8383,-97.0503,5.98,6.8,1111122 
NERRS,ioos:station:NOAA.NERRS:marscwq:1,2017-04-03T08:00:00Z,27.8383,-97.0503,5.96,6.8,1111122 
NERRS,ioos:station:NOAA.NERRS:marscwq:1,2017-04-03T09:00:00Z,27.8383,-97.0503,5.95,6.7,1111122 
NERRS,ioos:station:NOAA.NERRS:marscwq:1,2017-04-03T10:00:00Z,27.8383,-97.0503,5.98,6.7,1111122 
NERRS,ioos:station:NOAA.NERRS:marscwq:1,2017-04-03T11:00:00Z,27.8383,-97.0503,6.01,6.7,1111122 
NERRS,ioos:station:NOAA.NERRS:marscwq:1,2017-04-03T13:00:00Z,27.8383,-97.0503,6.26,6.3,1111122 
NERRS,ioos:station:NOAA.NERRS:marscwq:1,2017-04-03T14:00:00Z,27.8383,-97.0503,6.34,6.4,1111122 
NERRS,ioos:station:NOAA.NERRS:marscwq:1,2017-04-03T15:00:00Z,27.8383,-97.0503,6.34,6.5,1111122 
NERRS,ioos:station:NOAA.NERRS:marscwq:1,2017-04-03T16:00:00Z,27.8383,-97.0503,6.33,6.6,1111122 
NERRS,ioos:station:NOAA.NERRS:marscwq:1,2017-04-03T17:00:00Z,27.8383,-97.0503,6.38,6.6,1111122 
NERRS,ioos:station:NOAA.NERRS:marscwq:1,2017-04-03T18:00:00Z,27.8383,-97.0503,6.37,6.7,1111122 
NERRS,ioos:station:NOAA.NERRS:marscwq:1,2017-04-03T19:00:00Z,27.8383,-97.0503,6.3,6.7,1111122 
NERRS,ioos:station:NOAA.NERRS:marscwq:1,2017-04-03T20:00:00Z,27.8383,-97.0503,6.28,6.7,1111122 
NERRS,ioos:station:NOAA.NERRS:marscwq:1,2017-04-03T21:00:00Z,27.8383,-97.0503,6.24,6.7,1111122 
NERRS,ioos:station:NOAA.NERRS:marscwq:1,2017-04-03T22:00:00Z,27.8383,-97.0503,6.17,6.6,1111122 
NERRS,ioos:station:NOAA.NERRS:marscwq:1,2017-04-04T00:00:00Z,27.8383,-97.0503,6.12,6.6,1111122 
NERRS,ioos:station:NOAA.NERRS:marscwq:1,2017-04-04T00:45:00Z,27.8383,-97.0503,6.14,6.7,1111122 
NERRS,ioos:station:NOAA.NERRS:marscwq:1,2017-04-04T02:00:00Z,27.8383,-97.0503,6.16,6.5,1111122 
NERRS,ioos:station:NOAA.NERRS:marscwq:1,2017-04-04T03:00:00Z,27.8383,-97.0503,6.1,6.6,1111122 
NERRS,ioos:station:NOAA.NERRS:marscwq:1,2017-04-04T04:45:00Z,27.8383,-97.0503,5.98,6.6,1111122 
NERRS,ioos:station:NOAA.NERRS:marscwq:1,2017-04-04T08:00:00Z,27.8383,-97.0503,5.77,6.6,1111122 
NERRS,ioos:station:NOAA.NERRS:marscwq:1,2017-04-04T11:00:00Z,27.8383,-97.0503,5.8,6.6,1111122 
NERRS,ioos:station:NOAA.NERRS:marscwq:1,2017-04-04T12:00:00Z,27.8383,-97.0503,5.89,6.5,1111122 
NERRS,ioos:station:NOAA.NERRS:marscwq:1,2017-04-04T13:00:00Z,27.8383,-97.0503,5.99,6.3,1111122 
NERRS,ioos:station:NOAA.NERRS:marscwq:1,2017-04-04T14:00:00Z,27.8383,-97.0503,6.08,6.1,1111122 
NERRS,ioos:station:NOAA.NERRS:marscwq:1,2017-04-04T15:00:00Z,27.8383,-97.0503,6.14,6.3,1111122 
NERRS,ioos:station:NOAA.NERRS:marscwq:1,2017-04-04T16:00:00Z,27.8383,-97.0503,6.19,6.4,1111122 
NERRS,ioos:station:NOAA.NERRS:marscwq:1,2017-04-04T17:00:00Z,27.8383,-97.0503,6.19,6.8,1111122 
NERRS,ioos:station:NOAA.NERRS:marscwq:1,2017-04-04T18:00:00Z,27.8383,-97.0503,6.18,6.9,1111122 
NERRS,ioos:station:NOAA.NERRS:marscwq:1,2017-04-04T19:00:00Z,27.8383,-97.0503,6.18,6.9,1111122 
NERRS,ioos:station:NOAA.NERRS:marscwq:1,2017-04-04T21:00:00Z,27.8383,-97.0503,6.13,6.9,1111122 
NERRS,ioos:station:NOAA.NERRS:marscwq:1,2017-04-04T22:00:00Z,27.8383,-97.0503,6.13,7.0,1111122 
NERRS,ioos:station:NOAA.NERRS:marscwq:1,2017-04-06T14:00:00Z,27.8383,-97.0503,5.92,6.4,1111122 
NERRS,ioos:station:NOAA.NERRS:marscwq:1,2017-04-06T15:00:00Z,27.8383,-97.0503,6.02,6.4,1111122 
NERRS,ioos:station:NOAA.NERRS:marscwq:1,2017-04-06T16:00:00Z,27.8383,-97.0503,6.04,6.4,1111122 
NERRS,ioos:station:NOAA.NERRS:marscwq:1,2017-04-06T17:00:00Z,27.8383,-97.0503,6.1,6.4,1111122 
NERRS,ioos:station:NOAA.NERRS:marscwq:1,2017-04-06T18:00:00Z,27.8383,-97.0503,6.15,6.4,1111122 
NERRS,ioos:station:NOAA.NERRS:marscwq:1,2017-04-06T19:00:00Z,27.8383,-97.0503,6.12,6.4,1111122 
NERRS,ioos:station:NOAA.NERRS:marscwq:1,2017-04-06T20:00:00Z,27.8383,-97.0503,6.12,6.5,1111122 
NERRS,ioos:station:NOAA.NERRS:marscwq:1,2017-04-06T21:00:00Z,27.8383,-97.0503,6.07,7.0,1111122 
NERRS,ioos:station:NOAA.NERRS:marscwq:1,2017-04-06T22:00:00Z,27.8383,-97.0503,6.05,7.1,1111122 
NERRS,ioos:station:NOAA.NERRS:marscwq:1,2017-04-06T23:00:00Z,27.8383,-97.0503,6.04,7.5,1111122 
NERRS,ioos:station:NOAA.NERRS:marscwq:1,2017-04-07T00:00:00Z,27.8383,-97.0503,6.05,7.6,1111122 
NERRS,ioos:station:NOAA.NERRS:marscwq:1,2017-04-07T01:00:00Z,27.8383,-97.0503,6.0,7.6,1111122 
NERRS,ioos:station:NOAA.NERRS:marscwq:1,2017-04-07T02:00:00Z,27.8383,-97.0503,6.06,7.5,1111122 
NERRS,ioos:station:NOAA.NERRS:marscwq:1,2017-04-07T03:00:00Z,27.8383,-97.0503,6.08,6.8,1111122 
NERRS,ioos:station:NOAA.NERRS:marscwq:1,2017-04-07T04:00:00Z,27.8383,-97.0503,6.08,6.7,1111122 
NERRS,ioos:station:NOAA.NERRS:marscwq:1,2017-04-07T05:00:00Z,27.8383,-97.0503,6.12,6.7,1111122 
NERRS,ioos:station:NOAA.NERRS:marscwq:1,2017-04-07T06:00:00Z,27.8383,-97.0503,6.12,6.8,1111122 
NERRS,ioos:station:NOAA.NERRS:marscwq:1,2017-04-07T07:00:00Z,27.8383,-97.0503,6.09,6.8,1111122 
NERRS,ioos:station:NOAA.NERRS:marscwq:1,2017-04-07T08:00:00Z,27.8383,-97.0503,6.02,6.6,1111122 
NERRS,ioos:station:NOAA.NERRS:marscwq:1,2017-04-07T09:00:00Z,27.8383,-97.0503,5.97,6.7,1111122 
NERRS,ioos:station:NOAA.NERRS:marscwq:1,2017-04-07T10:00:00Z,27.8383,-97.0503,5.91,6.7,1111122 
NERRS,ioos:station:NOAA.NERRS:marscwq:1,2017-04-07T11:00:00Z,27.8383,-97.0503,5.89,6.5,1111122 
NERRS,ioos:station:NOAA.NERRS:marscwq:1,2017-04-07T12:00:00Z,27.8383,-97.0503,5.91,6.4,1111122 
NERRS,ioos:station:NOAA.NERRS:marscwq:1,2017-04-07T13:00:00Z,27.8383,-97.0503,5.9,6.2,1111122 
NERRS,ioos:station:NOAA.NERRS:marscwq:1,2017-04-07T14:00:00Z,27.8383,-97.0503,5.95,6.6,1111122 
NERRS,ioos:station:NOAA.NERRS:marscwq:1,2017-04-07T15:00:00Z,27.8383,-97.0503,5.99,6.6,1111122 
NERRS,ioos:station:NOAA.NERRS:marscwq:1,2017-04-07T16:00:00Z,27.8383,-97.0503,6.02,6.5,1111122 
NERRS,ioos:station:NOAA.NERRS:marscwq:1,2017-04-07T17:00:00Z,27.8383,-97.0503,6.08,6.9,1111122 
NERRS,ioos:station:NOAA.NERRS:marscwq:1,2017-04-07T18:00:00Z,27.8383,-97.0503,6.12,6.6,1111122 
NERRS,ioos:station:NOAA.NERRS:marscwq:1,2017-04-07T19:00:00Z,27.8383,-97.0503,6.12,6.9,1111122 
NERRS,ioos:station:NOAA.NERRS:marscwq:1,2017-04-07T20:00:00Z,27.8383,-97.0503,6.11,7.2,1111122 
NERRS,ioos:station:NOAA.NERRS:marscwq:1,2017-04-07T21:00:00Z,27.8383,-97.0503,6.1,7.1,1111122 
NERRS,ioos:station:NOAA.NERRS:marscwq:1,2017-04-07T22:00:00Z,27.8383,-97.0503,6.06,7.1,1111122 
NERRS,ioos:station:NOAA.NERRS:marscwq:1,2017-04-07T23:00:00Z,27.8383,-97.0503,6.03,7.0,1111122 
NERRS,ioos:station:NOAA.NERRS:marscwq:1,2017-04-08T00:00:00Z,27.8383,-97.0503,5.96,7.0,1111122 
NERRS,ioos:station:NOAA.NERRS:marscwq:1,2017-04-08T01:00:00Z,27.8383,-97.0503,6.01,7.1,1111122 
NERRS,ioos:station:NOAA.NERRS:marscwq:1,2017-04-08T02:00:00Z,27.8383,-97.0503,6.02,7.2,1111122 
NERRS,ioos:station:NOAA.NERRS:marscwq:1,2017-04-08T03:00:00Z,27.8383,-97.0503,6.01,7.1,1111122 
NERRS,ioos:station:NOAA.NERRS:marscwq:1,2017-04-08T04:00:00Z,27.8383,-97.0503,6.06,6.9,1111122 
NERRS,ioos:station:NOAA.NERRS:marscwq:1,2017-04-08T05:00:00Z,27.8383,-97.0503,6.09,6.9,1111122 
NERRS,ioos:station:NOAA.NERRS:marscwq:1,2017-04-08T06:00:00Z,27.8383,-97.0503,6.12,7.1,1111122 
NERRS,ioos:station:NOAA.NERRS:marscwq:1,2017-04-08T07:00:00Z,27.8383,-97.0503,6.11,6.8,1111122 
NERRS,ioos:station:NOAA.NERRS:marscwq:1,2017-04-08T08:00:00Z,27.8383,-97.0503,6.07,6.3,1111122 
NERRS,ioos:station:NOAA.NERRS:marscwq:1,2017-04-08T09:00:00Z,27.8383,-97.0503,6.04,6.2,1111122 
NERRS,ioos:station:NOAA.NERRS:marscwq:1,2017-04-08T10:00:00Z,27.8383,-97.0503,5.96,6.0,1111122 
NERRS,ioos:station:NOAA.NERRS:marscwq:1,2017-04-08T11:00:00Z,27.8383,-97.0503,5.96,6.4,1111122 
NERRS,ioos:station:NOAA.NERRS:marscwq:1,2017-04-08T12:00:00Z,27.8383,-97.0503,5.93,6.1,1111122 
NERRS,ioos:station:NOAA.NERRS:marscwq:1,2017-04-08T13:00:00Z,27.8383,-97.0503,5.94,6.2,1111122 
NERRS,ioos:station:NOAA.NERRS:marscwq:1,2017-04-08T14:00:00Z,27.8383,-97.0503,5.92,6.5,1111122 
NERRS,ioos:station:NOAA.NERRS:marscwq:1,2017-04-08T15:00:00Z,27.8383,-97.0503,5.95,6.7,1111122 
NERRS,ioos:station:NOAA.NERRS:marscwq:1,2017-04-08T16:00:00Z,27.8383,-97.0503,5.98,6.6,1111122 
NERRS,ioos:station:NOAA.NERRS:marscwq:1,2017-04-08T17:00:00Z,27.8383,-97.0503,6.06,6.8,1111122 
NERRS,ioos:station:NOAA.NERRS:marscwq:1,2017-04-08T18:00:00Z,27.8383,-97.0503,6.06,6.8,1111122 
NERRS,ioos:station:NOAA.NERRS:marscwq:1,2017-04-08T19:00:00Z,27.8383,-97.0503,6.07,7.0,1111122 
NERRS,ioos:station:NOAA.NERRS:marscwq:1,2017-04-08T20:00:00Z,27.8383,-97.0503,6.04,5.6,1111122 
NERRS,ioos:station:NOAA.NERRS:marscwq:1,2017-04-08T21:00:00Z,27.8383,-97.0503,6.02,6.3,1111122 
NERRS,ioos:station:NOAA.NERRS:marscwq:1,2017-04-08T22:00:00Z,27.8383,-97.0503,6.0,6.3,1111122 
NERRS,ioos:station:NOAA.NERRS:marscwq:1,2017-04-08T23:00:00Z,27.8383,-97.0503,6.0,6.1,1111122 
NERRS,ioos:station:NOAA.NERRS:marscwq:1,2017-04-09T00:00:00Z,27.8383,-97.0503,5.96,6.3,1111122 
NERRS,ioos:station:NOAA.NERRS:marscwq:1,2017-04-09T01:00:00Z,27.8383,-97.0503,5.93,6.3,1111122 
NERRS,ioos:station:NOAA.NERRS:marscwq:1,2017-04-09T02:00:00Z,27.8383,-97.0503,5.91,6.0,1111122 
NERRS,ioos:station:NOAA.NERRS:marscwq:1,2017-04-09T03:00:00Z,27.8383,-97.0503,5.93,5.8,1111122 
NERRS,ioos:station:NOAA.NERRS:marscwq:1,2017-04-09T04:00:00Z,27.8383,-97.0503,5.99,6.1,1111122 
NERRS,ioos:station:NOAA.NERRS:marscwq:1,2017-04-09T05:00:00Z,27.8383,-97.0503,6.02,6.1,1111122 
NERRS,ioos:station:NOAA.NERRS:marscwq:1,2017-04-09T06:00:00Z,27.8383,-97.0503,6.06,6.0,1111122 
NERRS,ioos:station:NOAA.NERRS:marscwq:1,2017-04-09T07:00:00Z,27.8383,-97.0503,6.05,6.0,1111122 
NERRS,ioos:station:NOAA.NERRS:marscwq:1,2017-04-09T08:00:00Z,27.8383,-97.0503,6.06,5.6,1111122 
NERRS,ioos:station:NOAA.NERRS:marscwq:1,2017-04-09T09:00:00Z,27.8383,-97.0503,6.04,5.6,1111122 
NERRS,ioos:station:NOAA.NERRS:marscwq:1,2017-04-09T10:00:00Z,27.8383,-97.0503,6.0,6.1,1111122 
NERRS,ioos:station:NOAA.NERRS:marscwq:1,2017-04-09T11:00:00Z,27.8383,-97.0503,5.97,6.3,1111122 
NERRS,ioos:station:NOAA.NERRS:marscwq:1,2017-04-09T12:00:00Z,27.8383,-97.0503,5.95,6.4,1111122 
NERRS,ioos:station:NOAA.NERRS:marscwq:1,2017-04-09T13:00:00Z,27.8383,-97.0503,5.94,6.2,1111122 
NERRS,ioos:station:NOAA.NERRS:marscwq:1,2017-04-09T14:00:00Z,27.8383,-97.0503,5.94,6.0,1111122 
NERRS,ioos:station:NOAA.NERRS:marscwq:1,2017-04-09T16:00:00Z,27.8383,-97.0503,5.99,5.7,1111122 
NERRS,ioos:station:NOAA.NERRS:marscwq:1,2017-04-09T17:00:00Z,27.8383,-97.0503,5.99,6.0,1111122 
NERRS,ioos:station:NOAA.NERRS:marscwq:1,2017-04-09T18:00:00Z,27.8383,-97.0503,6.06,6.1,1111122 
NERRS,ioos:station:NOAA.NERRS:marscwq:1,2017-04-09T19:00:00Z,27.8383,-97.0503,6.08,6.3,1111122 
NERRS,ioos:station:NOAA.NERRS:marscwq:1,2017-04-09T20:00:00Z,27.8383,-97.0503,6.08,6.2,1111122 
NERRS,ioos:station:NOAA.NERRS:marscwq:1,2017-04-09T21:00:00Z,27.8383,-97.0503,6.03,5.6,1111122 
NERRS,ioos:station:NOAA.NERRS:marscwq:1,2017-04-09T22:00:00Z,27.8383,-97.0503,6.04,6.3,1111122 
NERRS,ioos:station:NOAA.NERRS:marscwq:1,2017-04-09T23:00:00Z,27.8383,-97.0503,6.0,6.4,1111122 
NERRS,ioos:station:NOAA.NERRS:marscwq:1,2017-04-10T00:00:00Z,27.8383,-97.0503,5.98,6.2,1111122 
NERRS,ioos:station:NOAA.NERRS:marscwq:1,2017-04-10T01:00:00Z,27.8383,-97.0503,5.98,6.2,1111122 
NERRS,ioos:station:NOAA.NERRS:marscwq:1,2017-04-10T02:00:00Z,27.8383,-97.0503,5.97,5.5,1111122 
NERRS,ioos:station:NOAA.NERRS:marscwq:1,2017-04-10T03:00:00Z,27.8383,-97.0503,5.98,5.8,1111122 
NERRS,ioos:station:NOAA.NERRS:marscwq:1,2017-04-10T04:00:00Z,27.8383,-97.0503,6.02,5.8,1111122 
NERRS,ioos:station:NOAA.NERRS:marscwq:1,2017-04-10T05:00:00Z,27.8383,-97.0503,6.04,5.6,1111122 
NERRS,ioos:station:NOAA.NERRS:marscwq:1,2017-04-10T06:00:00Z,27.8383,-97.0503,6.1,6.0,1111122 
NERRS,ioos:station:NOAA.NERRS:marscwq:1,2017-04-10T07:00:00Z,27.8383,-97.0503,6.16,5.9,1111122 
NERRS,ioos:station:NOAA.NERRS:marscwq:1,2017-04-10T08:00:00Z,27.8383,-97.0503,6.16,5.2,1111122 
NERRS,ioos:station:NOAA.NERRS:marscwq:1,2017-04-10T09:00:00Z,27.8383,-97.0503,6.15,5.8,1111122 
NERRS,ioos:station:NOAA.NERRS:marscwq:1,2017-04-10T10:00:00Z,27.8383,-97.0503,6.13,5.8,1111122 
NERRS,ioos:station:NOAA.NERRS:marscwq:1,2017-04-10T11:00:00Z,27.8383,-97.0503,6.11,5.8,1111122 
NERRS,ioos:station:NOAA.NERRS:marscwq:1,2017-04-10T12:00:00Z,27.8383,-97.0503,6.11,5.9,1111122 
NERRS,ioos:station:NOAA.NERRS:marscwq:1,2017-04-10T13:00:00Z,27.8383,-97.0503,6.07,6.2,1111122 
NERRS,ioos:station:NOAA.NERRS:marscwq:1,2017-04-10T14:00:00Z,27.8383,-97.0503,6.1,5.7,1111122 
NERRS,ioos:station:NOAA.NERRS:marscwq:1,2017-04-10T15:00:00Z,27.8383,-97.0503,6.05,5.7,1111122 
NERRS,ioos:station:NOAA.NERRS:marscwq:1,2017-04-10T16:00:00Z,27.8383,-97.0503,6.03,5.9,1111122 
NERRS,ioos:station:NOAA.NERRS:marscwq:1,2017-04-10T17:00:00Z,27.8383,-97.0503,6.06,5.8,1111122 
NERRS,ioos:station:NOAA.NERRS:marscwq:1,2017-04-10T18:00:00Z,27.8383,-97.0503,6.11,5.9,1111122 
NERRS,ioos:station:NOAA.NERRS:marscwq:1,2017-04-10T19:00:00Z,27.8383,-97.0503,6.1,5.9,1111122 
NERRS,ioos:station:NOAA.NERRS:marscwq:1,2017-04-10T20:00:00Z,27.8383,-97.0503,6.12,6.1,1111122 
NERRS,ioos:station:NOAA.NERRS:marscwq:1,2017-04-10T21:00:00Z,27.8383,-97.0503,6.13,6.1,1111122 
NERRS,ioos:station:NOAA.NERRS:marscwq:1,2017-04-10T22:00:00Z,27.8383,-97.0503,6.07,5.8,1111122 
NERRS,ioos:station:NOAA.NERRS:marscwq:1,2017-04-10T23:00:00Z,27.8383,-97.0503,6.03,5.7,1111122 
NERRS,ioos:station:NOAA.NERRS:marscwq:1,2017-04-11T00:00:00Z,27.8383,-97.0503,6.02,6.0,1111122 
NERRS,ioos:station:NOAA.NERRS:marscwq:1,2017-04-11T01:00:00Z,27.8383,-97.0503,6.01,5.9,1111122 
NERRS,ioos:station:NOAA.NERRS:marscwq:1,2017-04-11T02:00:00Z,27.8383,-97.0503,5.97,6.3,1111122 
NERRS,ioos:station:NOAA.NERRS:marscwq:1,2017-04-11T03:00:00Z,27.8383,-97.0503,5.98,6.0,1111122 
NERRS,ioos:station:NOAA.NERRS:marscwq:1,2017-04-11T04:00:00Z,27.8383,-97.0503,5.99,6.1,1111122 
NERRS,ioos:station:NOAA.NERRS:marscwq:1,2017-04-11T05:00:00Z,27.8383,-97.0503,6.01,6.0,1111122 
NERRS,ioos:station:NOAA.NERRS:marscwq:1,2017-04-11T06:00:00Z,27.8383,-97.0503,6.09,6.3,1111122 
NERRS,ioos:station:NOAA.NERRS:marscwq:1,2017-04-11T07:00:00Z,27.8383,-97.0503,6.17,6.6,1111122 
NERRS,ioos:station:NOAA.NERRS:marscwq:1,2017-04-11T08:00:00Z,27.8383,-97.0503,6.19,6.4,1111122 
NERRS,ioos:station:NOAA.NERRS:marscwq:1,2017-04-11T09:00:00Z,27.8383,-97.0503,6.21,5.9,1111122 
NERRS,ioos:station:NOAA.NERRS:marscwq:1,2017-04-11T10:00:00Z,27.8383,-97.0503,6.18,6.1,1111122 
NERRS,ioos:station:NOAA.NERRS:marscwq:1,2017-04-11T11:00:00Z,27.8383,-97.0503,6.22,6.4,1111122 
NERRS,ioos:station:NOAA.NERRS:marscwq:1,2017-04-11T12:00:00Z,27.8383,-97.0503,6.18,6.3,1111122 
NERRS,ioos:station:NOAA.NERRS:marscwq:1,2017-04-11T13:00:00Z,27.8383,-97.0503,6.2,6.4,1111122 
NERRS,ioos:station:NOAA.NERRS:marscwq:1,2017-04-11T14:00:00Z,27.8383,-97.0503,6.21,6.7,1111122 
NERRS,ioos:station:NOAA.NERRS:marscwq:1,2017-04-11T15:00:00Z,27.8383,-97.0503,6.22,6.6,1111122 
NERRS,ioos:station:NOAA.NERRS:marscwq:1,2017-04-11T16:00:00Z,27.8383,-97.0503,6.2,6.6,1111122 
NERRS,ioos:station:NOAA.NERRS:marscwq:1,2017-04-11T17:00:00Z,27.8383,-97.0503,6.18,6.6,1111122 
NERRS,ioos:station:NOAA.NERRS:marscwq:1,2017-04-11T18:00:00Z,27.8383,-97.0503,6.22,6.5,1111122 
NERRS,ioos:station:NOAA.NERRS:marscwq:1,2017-04-11T19:00:00Z,27.8383,-97.0503,6.23,6.6,1111122 
NERRS,ioos:station:NOAA.NERRS:marscwq:1,2017-04-11T20:00:00Z,27.8383,-97.0503,6.22,7.1,1111122 
NERRS,ioos:station:NOAA.NERRS:marscwq:1,2017-04-11T21:00:00Z,27.8383,-97.0503,6.21,6.7,1111122 
NERRS,ioos:station:NOAA.NERRS:marscwq:1,2017-04-11T22:00:00Z,27.8383,-97.0503,6.2,6.6,1111122 
NERRS,ioos:station:NOAA.NERRS:marscwq:1,2017-04-11T23:00:00Z,27.8383,-97.0503,6.23,6.9,1111122 
NERRS,ioos:station:NOAA.NERRS:marscwq:1,2017-04-12T00:00:00Z,27.8383,-97.0503,6.19,6.8,1111122 
NERRS,ioos:station:NOAA.NERRS:marscwq:1,2017-04-12T01:00:00Z,27.8383,-97.0503,6.0,6.7,1111122 
NERRS,ioos:station:NOAA.NERRS:marscwq:1,2017-04-12T02:00:00Z,27.8383,-97.0503,6.14,6.6,1111122 
NERRS,ioos:station:NOAA.NERRS:marscwq:1,2017-04-12T03:00:00Z,27.8383,-97.0503,6.12,6.7,1111122 
NERRS,ioos:station:NOAA.NERRS:marscwq:1,2017-04-12T04:00:00Z,27.8383,-97.0503,6.22,6.6,1111122 
NERRS,ioos:station:NOAA.NERRS:marscwq:1,2017-04-12T05:00:00Z,27.8383,-97.0503,6.23,6.6,1111122 
NERRS,ioos:station:NOAA.NERRS:marscwq:1,2017-04-12T06:00:00Z,27.8383,-97.0503,6.14,6.5,1111122 
NERRS,ioos:station:NOAA.NERRS:marscwq:1,2017-04-12T07:00:00Z,27.8383,-97.0503,6.18,6.5,1111122 
NERRS,ioos:station:NOAA.NERRS:marscwq:1,2017-04-12T08:00:00Z,27.8383,-97.0503,6.3,6.5,1111122 
NERRS,ioos:station:NOAA.NERRS:marscwq:1,2017-04-12T09:00:00Z,27.8383,-97.0503,6.4,6.5,1111122 
NERRS,ioos:station:NOAA.NERRS:marscwq:1,2017-04-12T10:00:00Z,27.8383,-97.0503,6.39,6.7,1111122 
NERRS,ioos:station:NOAA.NERRS:marscwq:1,2017-04-12T11:00:00Z,27.8383,-97.0503,6.29,6.8,1111122 
NERRS,ioos:station:NOAA.NERRS:marscwq:1,2017-04-12T12:00:00Z,27.8383,-97.0503,6.32,6.8,1111122 
NERRS,ioos:station:NOAA.NERRS:marscwq:1,2017-04-12T14:00:00Z,27.8383,-97.0503,6.35,6.9,1111122 
NERRS,ioos:station:NOAA.NERRS:marscwq:1,2017-04-12T15:00:00Z,27.8383,-97.0503,6.34,6.7,1111122 
NERRS,ioos:station:NOAA.NERRS:marscwq:1,2017-04-12T16:00:00Z,27.8383,-97.0503,6.27,6.7,1111122 
NERRS,ioos:station:NOAA.NERRS:marscwq:1,2017-04-12T17:00:00Z,27.8383,-97.0503,6.27,6.7,1111122 
NERRS,ioos:station:NOAA.NERRS:marscwq:1,2017-04-12T18:00:00Z,27.8383,-97.0503,6.27,7.0,1111122 
NERRS,ioos:station:NOAA.NERRS:marscwq:1,2017-04-12T19:00:00Z,27.8383,-97.0503,6.36,6.7,1111122 
NERRS,ioos:station:NOAA.NERRS:marscwq:1,2017-04-12T20:00:00Z,27.8383,-97.0503,6.34,7.1,1111122 
NERRS,ioos:station:NOAA.NERRS:marscwq:1,2017-04-12T21:00:00Z,27.8383,-97.0503,6.27,6.7,1111122 
NERRS,ioos:station:NOAA.NERRS:marscwq:1,2017-04-12T22:00:00Z,27.8383,-97.0503,6.23,6.6,1111122 
NERRS,ioos:station:NOAA.NERRS:marscwq:1,2017-04-12T23:00:00Z,27.8383,-97.0503,6.17,6.6,1111122 
NERRS,ioos:station:NOAA.NERRS:marscwq:1,2017-04-13T00:00:00Z,27.8383,-97.0503,6.15,6.8,1111122 
NERRS,ioos:station:NOAA.NERRS:marscwq:1,2017-04-13T01:00:00Z,27.8383,-97.0503,6.09,6.7,1111122 
NERRS,ioos:station:NOAA.NERRS:marscwq:1,2017-04-13T02:00:00Z,27.8383,-97.0503,6.06,7.0,1111122 
NERRS,ioos:station:NOAA.NERRS:marscwq:1,2017-04-13T03:00:00Z,27.8383,-97.0503,5.99,7.1,1111122 
NERRS,ioos:station:NOAA.NERRS:marscwq:1,2017-04-13T04:00:00Z,27.8383,-97.0503,6.03,7.3,1111122 
NERRS,ioos:station:NOAA.NERRS:marscwq:1,2017-04-13T05:00:00Z,27.8383,-97.0503,6.02,7.3,1111122 
NERRS,ioos:station:NOAA.NERRS:marscwq:1,2017-04-13T06:00:00Z,27.8383,-97.0503,6.07,7.3,1111122 
NERRS,ioos:station:NOAA.NERRS:marscwq:1,2017-04-13T07:00:00Z,27.8383,-97.0503,6.16,7.2,1111122 
NERRS,ioos:station:NOAA.NERRS:marscwq:1,2017-04-13T08:00:00Z,27.8383,-97.0503,6.17,7.0,1111122 
NERRS,ioos:station:NOAA.NERRS:marscwq:1,2017-04-13T09:00:00Z,27.8383,-97.0503,6.29,7.1,1111122 
NERRS,ioos:station:NOAA.NERRS:marscwq:1,2017-04-13T10:00:00Z,27.8383,-97.0503,6.31,6.8,1111122 
NERRS,ioos:station:NOAA.NERRS:marscwq:1,2017-04-13T11:00:00Z,27.8383,-97.0503,6.3,6.7,1111122 